Location: Unspecified
(22.6800°N, 112.2000°E)
Time: 12:38:02
(UTC+08:00)

Transit 2A - Pass Details

Date: 13 August 2021
Orbit: 595 x 963 km, 66.7° (Epoch: 16 September)

Event Time Altitude Azimuth Distance (km) Brightness Sun altitude
Rises 03:01:00 0° 201° (SSW) 2,820 - -38.5°
Reaches altitude 10° 03:03:12 10° 201° (SSW) 1,918 - -38.1°
Maximum altitude 03:07:28 87° 113° (ESE) 606 - -37.4°
Exits shadow 03:11:13 14° 23° (NNE) 1,713 8.4 -36.7°
Drops below altitude 10° 03:11:55 10° 23° (NNE) 1,993 8.8 -36.6°
Sets 03:14:15 0° 23° (NNE) 2,942 9.8 -36.2°
